TimeHST,TemperatureF,Dew PointF,Humidity,Sea Level PressureIn,VisibilityMPH,Wind Direction,Wind SpeedMPH,Gust SpeedMPH,PrecipitationIn,Events,Conditions,WindDirDegrees,DateUTC
12:54 AM,70.0,64.0,81,30.04,10.0,NNE,18.4,-,N/A,Rain,Light Rain,20,2011-12-11 10:54:00
1:54 AM,70.0,64.9,84,30.04,10.0,NNE,13.8,-,N/A,,Overcast,20,2011-12-11 11:54:00
1:56 AM,71.6,64.4,78,30.02,10.0,NNE,13.8,-,N/A,,Overcast,20,2011-12-11 11:56:00
2:03 AM,71.6,66.2,83,30.02,10.0,NNE,15.0,-,N/A,,Overcast,20,2011-12-11 12:03:00
2:07 AM,71.6,66.2,83,30.02,10.0,North,16.1,-,N/A,,Overcast,10,2011-12-11 12:07:00
2:14 AM,71.6,66.2,83,30.02,10.0,NNE,16.1,23.0,N/A,Rain,Light Rain,20,2011-12-11 12:14:00
2:29 AM,69.8,64.4,83,30.01,10.0,NNE,16.1,-,N/A,Rain,Light Rain,20,2011-12-11 12:29:00
2:52 AM,71.6,66.2,83,30.00,10.0,NNE,17.3,24.2,N/A,Rain,Light Rain,30,2011-12-11 12:52:00
2:54 AM,71.1,66.0,84,30.01,10.0,North,15.0,24.2,N/A,,Overcast,10,2011-12-11 12:54:00
3:30 AM,71.6,66.2,83,29.99,10.0,NNE,12.7,-,N/A,,Scattered Clouds,30,2011-12-11 13:30:00
3:54 AM,71.1,66.0,84,30.01,10.0,NE,10.4,-,N/A,,Clear,40,2011-12-11 13:54:00
4:54 AM,71.1,64.0,78,30.01,10.0,NE,10.4,-,N/A,,Clear,40,2011-12-11 14:54:00
5:54 AM,71.1,64.9,81,30.01,10.0,NE,11.5,-,N/A,,Scattered Clouds,50,2011-12-11 15:54:00
6:54 AM,70.0,64.9,84,30.03,5.0,NE,12.7,-,N/A,,Haze,50,2011-12-11 16:54:00
7:07 AM,69.8,64.4,83,30.02,10.0,NE,13.8,-,N/A,Rain,Light Rain,50,2011-12-11 17:07:00
7:54 AM,69.1,63.0,81,30.04,10.0,NE,15.0,-,N/A,,Mostly Cloudy,40,2011-12-11 17:54:00
8:54 AM,72.0,64.0,76,30.06,10.0,NE,13.8,-,N/A,,Mostly Cloudy,40,2011-12-11 18:54:00
9:54 AM,71.1,63.0,75,30.07,10.0,NE,10.4,-,N/A,Rain,Light Rain,40,2011-12-11 19:54:00
10:54 AM,71.1,64.0,78,30.06,10.0,NE,10.4,-,N/A,Rain,Light Rain,50,2011-12-11 20:54:00
11:32 AM,71.6,66.2,83,30.04,2.0,ENE,12.7,17.3,N/A,Rain,Heavy Rain,60,2011-12-11 21:32:00
11:44 AM,71.6,66.2,83,30.03,3.0,ENE,13.8,21.9,N/A,Rain,Rain,60,2011-12-11 21:44:00
11:54 AM,72.0,66.0,81,30.05,3.0,NE,12.7,-,N/A,Rain,Light Rain,50,2011-12-11 21:54:00
12:19 PM,71.6,66.2,83,30.03,2.0,ENE,12.7,19.6,N/A,Rain,Rain,60,2011-12-11 22:19:00
12:54 PM,72.0,66.9,84,30.03,3.0,NE,19.6,26.5,N/A,Rain,Light Rain,50,2011-12-11 22:54:00
1:10 PM,73.4,66.2,78,30.01,3.0,NE,17.3,25.3,N/A,Rain,Rain,50,2011-12-11 23:10:00
1:18 PM,73.4,68.0,83,30.01,3.0,NE,18.4,24.2,N/A,Rain,Light Rain,50,2011-12-11 23:18:00
1:29 PM,71.6,66.2,83,30.00,3.0,NE,18.4,25.3,N/A,Rain,Rain,50,2011-12-11 23:29:00
1:54 PM,72.0,66.9,84,30.01,8.0,ENE,17.3,27.6,N/A,Rain,Light Rain,60,2011-12-11 23:54:00
2:54 PM,73.0,66.0,79,30.02,10.0,ENE,13.8,20.7,N/A,,Scattered Clouds,60,2011-12-12 00:54:00
4:05 PM,73.4,64.4,73,29.99,10.0,NE,13.8,18.4,N/A,,Mostly Cloudy,40,2011-12-12 02:05:00
4:57 PM,71.6,64.4,78,30.02,10.0,NE,10.4,-,N/A,Rain,Light Rain,50,2011-12-12 02:57:00
5:03 PM,71.6,64.4,78,30.02,10.0,NE,10.4,-,N/A,Rain,Light Rain,50,2011-12-12 03:03:00
6:04 PM,71.6,64.4,78,30.02,10.0,ENE,15.0,20.7,N/A,Rain,Light Rain,70,2011-12-12 04:04:00
6:59 PM,71.6,66.2,83,30.04,10.0,NNE,10.4,20.7,N/A,Rain,Light Rain,30,2011-12-12 04:59:00
8:05 PM,71.6,66.2,83,30.04,10.0,NE,8.1,18.4,N/A,Rain,Light Rain,40,2011-12-12 06:05:00
9:06 PM,71.6,64.4,78,30.06,10.0,NNW,6.9,-,N/A,Rain,Light Rain,340,2011-12-12 07:06:00
9:54 PM,71.6,64.4,78,30.04,10.0,NNE,16.1,-,N/A,Rain,Light Rain,20,2011-12-12 07:54:00